Location: Nied?wied?
(53.3665°N, 14.8184°E)
Time: 23:22:46
(UTC+00:00)

ARIANE 5 R/B - Pass Details

Date: 03 March 2021
Orbit: 621 x 655 km, 98.2° (Epoch: 11 April)

Event Time Altitude Azimuth Distance (km) Brightness Sun altitude
Exits shadow 18:44:09 21° 48° (NE) 1,482 4.2 -18.8°
Drops below altitude 10° 18:47:02 10° 9° (N) 2,078 5.3 -19.2°
Sets 18:49:42 0° 354° (N) 2,996 6.4 -19.6°
